| time (UTC) | temp F | wind direction | speed MPH | gust MPH | rain 1hr in | rain 24hr in | rain mn in | humidity % | barometer mb |
| 20260506121204 | 74 | 317 | 0.0 | 2.0 | 0.00 | 0.00 | 0.00 | 92 | 1008.9 |
| 20260506120704 | 74 | 155 | 1.0 | 2.0 | 0.00 | 0.00 | 0.00 | 91 | 1009.0 |
| 20260506120204 | 74 | 155 | 0.0 | 1.0 | 0.00 | 0.00 | 0.00 | 91 | 1009.0 |
| 20260506115704 | 74 | 155 | 1.0 | 2.0 | 0.00 | 0.00 | 0.00 | 91 | 1008.8 |
| 20260506115204 | 74 | 155 | 0.0 | 0.0 | 0.00 | 0.00 | 0.00 | 91 | 1008.8 |
| 20260506114704 | 74 | 155 | 0.0 | 0.0 | 0.00 | 0.00 | 0.00 | 91 | 1008.7 |
| 20260506114205 | 74 | 155 | 0.0 | 1.0 | 0.00 | 0.00 | 0.00 | 91 | 1008.6 |
| 20260506113704 | 74 | 155 | 0.0 | 1.0 | 0.00 | 0.00 | 0.00 | 91 | 1008.4 |
| 20260506113205 | 74 | 155 | 0.0 | 2.0 | 0.00 | 0.00 | 0.00 | 91 | 1008.5 |
| 20260506112704 | 74 | 155 | 0.0 | 2.0 | 0.00 | 0.00 | 0.00 | 91 | 1008.4 |
| 20260506111204 | 74 | 155 | 0.0 | 1.0 | 0.00 | 0.00 | 0.00 | 91 | 1008.0 |
| 20260506110704 | 74 | 155 | 0.0 | 2.0 | 0.00 | 0.00 | 0.00 | 91 | 1008.0 |
| 20260506110204 | 74 | 155 | 0.0 | 2.0 | 0.00 | 0.00 | 0.00 | 91 | 1007.9 |
| 20260506105204 | 74 | 155 | 0.0 | 1.0 | 0.00 | 0.00 | 0.00 | 91 | 1007.9 |
| 20260506104704 | 74 | 155 | 0.0 | 2.0 | 0.00 | 0.00 | 0.00 | 91 | 1007.9 |
| 20260506104204 | 74 | 155 | 1.0 | 2.0 | 0.00 | 0.00 | 0.00 | 91 | 1007.8 |
| 20260506103204 | 74 | 197 | 1.0 | 2.0 | 0.00 | 0.00 | 0.00 | 91 | 1007.9 |
| 20260506102704 | 74 | 197 | 1.0 | 2.0 | 0.00 | 0.00 | 0.00 | 91 | 1007.8 |
| 20260506102204 | 74 | 197 | 0.0 | 2.0 | 0.00 | 0.00 | 0.00 | 91 | 1007.7 |
| 20260506101704 | 74 | 197 | 2.0 | 3.0 | 0.00 | 0.00 | 0.00 | 91 | 1007.6 |
| 20260506101204 | 74 | 182 | 1.0 | 5.0 | 0.00 | 0.00 | 0.00 | 90 | 1007.6 |
| 20260506100704 | 74 | 201 | 1.0 | 3.0 | 0.00 | 0.00 | 0.00 | 90 | 1007.5 |
| 20260506100204 | 74 | 197 | 0.0 | 3.0 | 0.00 | 0.00 | 0.00 | 90 | 1007.5 |
| 20260506095704 | 74 | 190 | 1.0 | 5.0 | 0.00 | 0.00 | 0.00 | 90 | 1007.4 |
| 20260506095204 | 74 | 149 | 1.0 | 3.0 | 0.00 | 0.00 | 0.00 | 90 | 1007.3 |
| 20260506094704 | 74 | 197 | 2.0 | 6.0 | 0.00 | 0.00 | 0.00 | 90 | 1007.2 |
| 20260506094204 | 74 | 206 | 3.0 | 8.0 | 0.00 | 0.00 | 0.00 | 90 | 1007.2 |
| 20260506093704 | 74 | 171 | 2.0 | 3.0 | 0.00 | 0.00 | 0.00 | 90 | 1007.1 |
| 20260506092704 | 74 | 194 | 2.0 | 5.0 | 0.00 | 0.00 | 0.00 | 90 | 1007.3 |
| 20260506092203 | 74 | 198 | 2.0 | 3.0 | 0.00 | 0.00 | 0.00 | 90 | 1007.2 |
| 20260506091703 | 74 | 293 | 2.0 | 5.0 | 0.00 | 0.00 | 0.00 | 90 | 1007.3 |
| 20260506090704 | 74 | 157 | 1.0 | 3.0 | 0.00 | 0.00 | 0.00 | 90 | 1007.2 |
| 20260506090204 | 74 | 199 | 1.0 | 2.0 | 0.00 | 0.00 | 0.00 | 89 | 1007.1 |
| 20260506085704 | 74 | 182 | 0.0 | 3.0 | 0.00 | 0.00 | 0.00 | 90 | 1007.2 |
| 20260506085204 | 74 | 325 | 2.0 | 7.0 | 0.00 | 0.00 | 0.00 | 89 | 1007.0 |
| 20260506084704 | 74 | 170 | 3.0 | 6.0 | 0.00 | 0.00 | 0.00 | 89 | 1007.0 |
| 20260506084204 | 75 | 160 | 1.0 | 3.0 | 0.00 | 0.00 | 0.00 | 89 | 1007.0 |
| 20260506083704 | 75 | 164 | 2.0 | 3.0 | 0.00 | 0.00 | 0.00 | 89 | 1007.2 |
| 20260506083204 | 75 | 200 | 1.0 | 7.0 | 0.00 | 0.00 | 0.00 | 89 | 1007.1 |
| 20260506082705 | 75 | 214 | 1.0 | 3.0 | 0.00 | 0.00 | 0.00 | 88 | 1006.9 |
| 20260506082204 | 75 | 183 | 1.0 | 3.0 | 0.00 | 0.00 | 0.00 | 88 | 1007.0 |
| 20260506081704 | 75 | 198 | 2.0 | 8.0 | 0.00 | 0.00 | 0.00 | 88 | 1006.8 |
| 20260506080704 | 75 | 155 | 1.0 | 3.0 | 0.00 | 0.00 | 0.00 | 88 | 1006.9 |
| 20260506080204 | 75 | 159 | 3.0 | 9.0 | 0.00 | 0.00 | 0.00 | 88 | 1006.7 |
| 20260506073204 | 76 | 151 | 3.0 | 8.0 | 0.00 | 0.00 | 0.00 | 87 | 1006.9 |
| 20260506072704 | 76 | 159 | 5.0 | 16.0 | 0.00 | 0.00 | 0.00 | 87 | 1006.8 |
| 20260506072204 | 76 | 144 | 3.0 | 12.0 | 0.00 | 0.00 | 0.00 | 86 | 1006.8 |
| 20260506071704 | 76 | 159 | 5.0 | 9.0 | 0.00 | 0.00 | 0.00 | 86 | 1007.0 |
| 20260506071204 | 76 | 207 | 1.0 | 5.0 | 0.00 | 0.00 | 0.00 | 86 | 1007.3 |
| 20260506070704 | 76 | 187 | 2.0 | 8.0 | 0.00 | 0.00 | 0.00 | 86 | 1007.3 |
| 20260506070204 | 76 | 160 | 2.0 | 7.0 | 0.00 | 0.00 | 0.00 | 86 | 1007.5 |
| 20260506061703 | 76 | 195 | 3.0 | 5.0 | 0.00 | 0.00 | 0.00 | 87 | 1007.7 |
| 20260506061204 | 76 | 188 | 2.0 | 7.0 | 0.00 | 0.00 | 0.00 | 87 | 1007.8 |
| 20260506060704 | 76 | 184 | 3.0 | 10.0 | 0.00 | 0.00 | 0.00 | 87 | 1007.8 |
| 20260506060203 | 76 | 215 | 2.0 | 8.0 | 0.00 | 0.00 | 0.00 | 87 | 1007.7 |
| 20260506051204 | 76 | 184 | 2.0 | 9.0 | 0.00 | 0.00 | 0.00 | 88 | 1007.4 |
| 20260506050704 | 76 | 156 | 2.0 | 9.0 | 0.00 | 0.00 | 0.00 | 88 | 1007.4 |
| 20260506050204 | 76 | 167 | 1.0 | 3.0 | 0.00 | 0.00 | 0.00 | 88 | 1007.3 |
| 20260506044703 | 76 | 139 | 1.0 | 6.0 | 0.00 | 0.00 | 0.00 | 88 | 1007.0 |
| 20260506043704 | 76 | 158 | 3.0 | 9.0 | 0.00 | 0.00 | 0.00 | 88 | 1006.9 |
| 20260506043203 | 76 | 159 | 5.0 | 12.0 | 0.00 | 0.00 | 0.00 | 88 | 1006.8 |
| 20260506042704 | 76 | 152 | 4.0 | 12.0 | 0.00 | 0.00 | 0.00 | 88 | 1006.6 |
| 20260506042204 | 76 | 153 | 7.0 | 12.0 | 0.00 | 0.00 | 0.00 | 88 | 1006.6 |
| 20260506041704 | 76 | 209 | 3.0 | 7.0 | 0.00 | 0.00 | 0.00 | 88 | 1006.7 |
| 20260506041203 | 76 | 126 | 3.0 | 9.0 | 0.00 | 0.00 | 0.00 | 88 | 1006.8 |
| 20260506040704 | 76 | 199 | 4.0 | 9.0 | 0.00 | 0.00 | 0.00 | 88 | 1006.7 |
| 20260506040205 | 76 | 172 | 3.0 | 5.0 | 0.00 | 0.00 | 0.00 | 87 | 1006.8 |
| 20260506035704 | 76 | 136 | 2.0 | 6.0 | 0.00 | 0.00 | 0.00 | 87 | 1006.9 |
| 20260506035203 | 76 | 148 | 2.0 | 7.0 | 0.00 | 0.00 | 0.00 | 87 | 1006.9 |
| 20260506034703 | 76 | 150 | 3.0 | 8.0 | 0.00 | 0.00 | 0.00 | 87 | 1006.8 |
| 20260506033204 | 77 | 153 | 3.0 | 8.0 | 0.00 | 0.00 | 0.00 | 87 | 1006.8 |
| 20260506032704 | 77 | 155 | 5.0 | 8.0 | 0.00 | 0.00 | 0.00 | 87 | 1006.8 |
| 20260506032204 | 77 | 160 | 3.0 | 6.0 | 0.00 | 0.00 | 0.00 | 86 | 1006.9 |
| 20260506030704 | 77 | 137 | 1.0 | 7.0 | 0.00 | 0.00 | 0.00 | 86 | 1006.9 |
| 20260506030204 | 77 | 158 | 3.0 | 8.0 | 0.00 | 0.00 | 0.00 | 86 | 1006.9 |
| 20260506025204 | 77 | 234 | 1.0 | 3.0 | 0.00 | 0.00 | 0.00 | 85 | 1006.6 |
| 20260506024705 | 77 | 154 | 2.0 | 6.0 | 0.00 | 0.00 | 0.00 | 85 | 1006.5 |
| 20260506024204 | 77 | 147 | 3.0 | 12.0 | 0.00 | 0.00 | 0.00 | 85 | 1006.3 |
| 20260506023704 | 77 | 173 | 3.0 | 7.0 | 0.00 | 0.00 | 0.00 | 84 | 1006.3 |
| 20260506023204 | 78 | 144 | 4.0 | 7.0 | 0.00 | 0.00 | 0.00 | 84 | 1006.2 |
| 20260506021704 | 78 | 163 | 2.0 | 6.0 | 0.00 | 0.00 | 0.00 | 83 | 1006.1 |
| 20260506021203 | 78 | 151 | 2.0 | 7.0 | 0.00 | 0.00 | 0.00 | 82 | 1006.1 |
| 20260506020705 | 78 | 150 | 3.0 | 8.0 | 0.00 | 0.00 | 0.00 | 82 | 1006.0 |
| 20260506020204 | 79 | 155 | 3.0 | 6.0 | 0.00 | 0.00 | 0.00 | 82 | 1006.1 |
| 20260506015204 | 79 | 158 | 2.0 | 6.0 | 0.00 | 0.00 | 0.00 | 81 | 1006.0 |
| 20260506014704 | 79 | 168 | 2.0 | 6.0 | 0.00 | 0.00 | 0.00 | 81 | 1006.0 |
| 20260506013703 | 79 | 244 | 2.0 | 7.0 | 0.00 | 0.00 | 0.00 | 81 | 1005.9 |
| 20260506013204 | 79 | 187 | 1.0 | 3.0 | 0.00 | 0.00 | 0.00 | 80 | 1005.9 |
| 20260506012204 | 79 | 203 | 1.0 | 3.0 | 0.00 | 0.00 | 0.00 | 80 | 1005.5 |
| 20260506011704 | 79 | 201 | 2.0 | 7.0 | 0.00 | 0.00 | 0.00 | 80 | 1005.5 |
| 20260506011205 | 80 | 136 | 2.0 | 8.0 | 0.00 | 0.00 | 0.00 | 79 | 1005.1 |
| 20260506010204 | 80 | 179 | 3.0 | 8.0 | 0.00 | 0.00 | 0.00 | 79 | 1004.9 |
| 20260506005704 | 80 | 185 | 3.0 | 7.0 | 0.00 | 0.00 | 0.00 | 79 | 1004.9 |
| 20260506005204 | 80 | 144 | 3.0 | 7.0 | 0.00 | 0.00 | 0.00 | 78 | 1005.0 |
| 20260506004704 | 80 | 174 | 2.0 | 7.0 | 0.00 | 0.00 | 0.00 | 78 | 1004.9 |
| 20260506004203 | 81 | 162 | 4.0 | 8.0 | 0.00 | 0.00 | 0.00 | 78 | 1005.0 |
| 20260506003703 | 81 | 165 | 4.0 | 12.0 | 0.00 | 0.00 | 0.00 | 77 | 1005.0 |
| 20260506003203 | 81 | 147 | 2.0 | 5.0 | 0.00 | 0.00 | 0.00 | 77 | 1005.1 |
| 20260506002703 | 81 | 146 | 2.0 | 5.0 | 0.00 | 0.00 | 0.00 | 77 | 1004.9 |
| 20260506002204 | 81 | 197 | 1.0 | 7.0 | 0.00 | 0.00 | 0.00 | 76 | 1004.9 |
| 20260506001704 | 81 | 218 | 2.0 | 7.0 | 0.00 | 0.00 | 0.00 | 76 | 1004.8 |
| 20260506001205 | 82 | 163 | 3.0 | 7.0 | 0.00 | 0.00 | 0.00 | 76 | 1004.7 |
| 20260506000704 | 82 | 194 | 4.0 | 10.0 | 0.00 | 0.00 | 0.00 | 75 | 1004.7 |
| 20260506000205 | 82 | 177 | 3.0 | 9.0 | 0.00 | 0.00 | 0.00 | 75 | 1004.7 |
| 20260505235704 | 82 | 194 | 3.0 | 12.0 | 0.00 | 0.00 | 0.00 | 75 | 1004.9 |
| 20260505235204 | 82 | 151 | 1.0 | 5.0 | 0.00 | 0.00 | 0.00 | 74 | 1004.8 |
| 20260505234704 | 82 | 148 | 3.0 | 12.0 | 0.00 | 0.00 | 0.00 | 74 | 1004.8 |
| 20260505234204 | 83 | 187 | 2.0 | 7.0 | 0.00 | 0.00 | 0.00 | 74 | 1004.7 |
| 20260505233704 | 83 | 156 | 3.0 | 7.0 | 0.00 | 0.00 | 0.00 | 74 | 1004.6 |
| 20260505233204 | 83 | 145 | 3.0 | 8.0 | 0.00 | 0.00 | 0.00 | 74 | 1004.7 |
| 20260505232704 | 83 | 167 | 1.0 | 9.0 | 0.00 | 0.00 | 0.00 | 73 | 1004.7 |
| 20260505231704 | 83 | 190 | 5.0 | 12.0 | 0.00 | 0.00 | 0.00 | 73 | 1004.6 |
| 20260505231204 | 83 | 150 | 6.0 | 16.0 | 0.00 | 0.00 | 0.00 | 73 | 1004.5 |
| 20260505230705 | 83 | 141 | 5.0 | 12.0 | 0.00 | 0.00 | 0.00 | 71 | 1004.4 |
| 20260505230204 | 84 | 152 | 8.0 | 20.0 | 0.00 | 0.00 | 0.00 | 70 | 1004.5 |
| 20260505225705 | 84 | 185 | 3.0 | 6.0 | 0.00 | 0.00 | 0.00 | 71 | 1004.5 |
| 20260505224704 | 84 | 178 | 3.0 | 5.0 | 0.00 | 0.00 | 0.00 | 72 | 1004.6 |
| 20260505223704 | 84 | 165 | 4.0 | 12.0 | 0.00 | 0.00 | 0.00 | 73 | 1004.7 |
| 20260505223203 | 84 | 197 | 2.0 | 5.0 | 0.00 | 0.00 | 0.00 | 72 | 1004.6 |
| 20260505222704 | 84 | 139 | 3.0 | 12.0 | 0.00 | 0.00 | 0.00 | 72 | 1004.7 |
| 20260505222204 | 84 | 250 | 2.0 | 5.0 | 0.00 | 0.00 | 0.00 | 72 | 1004.8 |
| 20260505221703 | 84 | 269 | 1.0 | 8.0 | 0.00 | 0.00 | 0.00 | 72 | 1004.8 |
| 20260505221204 | 84 | 185 | 1.0 | 5.0 | 0.00 | 0.00 | 0.00 | 72 | 1004.7 |
| 20260505220704 | 84 | 190 | 3.0 | 12.0 | 0.00 | 0.00 | 0.00 | 72 | 1004.9 |
| 20260505220203 | 84 | 191 | 2.0 | 7.0 | 0.00 | 0.00 | 0.00 | 72 | 1004.9 |
| 20260505215704 | 84 | 248 | 3.0 | 6.0 | 0.00 | 0.00 | 0.00 | 72 | 1004.9 |
| 20260505215203 | 84 | 135 | 4.0 | 8.0 | 0.00 | 0.00 | 0.00 | 72 | 1005.0 |
| 20260505214703 | 84 | 205 | 2.0 | 7.0 | 0.00 | 0.00 | 0.00 | 73 | 1004.9 |
| 20260505214205 | 84 | 93 | 1.0 | 8.0 | 0.00 | 0.00 | 0.00 | 73 | 1004.9 |
| 20260505213704 | 83 | 140 | 4.0 | 8.0 | 0.00 | 0.00 | 0.00 | 74 | 1005.0 |
| 20260505212204 | 84 | 200 | 4.0 | 12.0 | 0.00 | 0.00 | 0.00 | 72 | 1005.0 |
| 20260505211704 | 84 | 208 | 5.0 | 13.0 | 0.00 | 0.00 | 0.00 | 71 | 1005.2 |
| 20260505211204 | 84 | 151 | 3.0 | 9.0 | 0.00 | 0.00 | 0.00 | 72 | 1005.2 |
| 20260505205204 | 84 | 202 | 4.0 | 10.0 | 0.00 | 0.00 | 0.00 | 71 | 1005.1 |
| 20260505204704 | 84 | 145 | 4.0 | 8.0 | 0.00 | 0.00 | 0.00 | 70 | 1005.1 |
| 20260505204204 | 84 | 138 | 3.0 | 10.0 | 0.00 | 0.00 | 0.00 | 71 | 1005.2 |
| 20260505203704 | 84 | 191 | 3.0 | 8.0 | 0.00 | 0.00 | 0.00 | 70 | 1005.2 |
| 20260505202703 | 84 | 150 | 5.0 | 9.0 | 0.00 | 0.00 | 0.00 | 70 | 1005.3 |
| 20260505202204 | 84 | 187 | 3.0 | 10.0 | 0.00 | 0.00 | 0.00 | 72 | 1005.4 |
| 20260505201704 | 84 | 187 | 5.0 | 10.0 | 0.00 | 0.00 | 0.00 | 70 | 1005.5 |
| 20260505201204 | 83 | 197 | 4.0 | 8.0 | 0.00 | 0.00 | 0.00 | 71 | 1005.6 |
| 20260505200704 | 83 | 202 | 5.0 | 15.0 | 0.00 | 0.00 | 0.00 | 72 | 1005.5 |
| 20260505195204 | 83 | 171 | 2.0 | 7.0 | 0.00 | 0.00 | 0.00 | 72 | 1005.9 |
| 20260505194703 | 83 | 216 | 3.0 | 6.0 | 0.00 | 0.00 | 0.00 | 72 | 1005.9 |
| 20260505194205 | 83 | 199 | 3.0 | 12.0 | 0.00 | 0.00 | 0.00 | 72 | 1006.0 |
| 20260505193704 | 82 | 196 | 3.0 | 10.0 | 0.00 | 0.00 | 0.00 | 71 | 1006.0 |
| 20260505193204 | 82 | 190 | 3.0 | 8.0 | 0.00 | 0.00 | 0.00 | 72 | 1006.1 |
| 20260505192704 | 82 | 184 | 3.0 | 8.0 | 0.00 | 0.00 | 0.00 | 71 | 1006.1 |
| 20260505192205 | 82 | 222 | 3.0 | 7.0 | 0.00 | 0.00 | 0.00 | 71 | 1006.1 |
| 20260505191704 | 82 | 193 | 3.0 | 13.0 | 0.00 | 0.00 | 0.00 | 71 | 1006.2 |
| 20260505190704 | 82 | 134 | 3.0 | 8.0 | 0.00 | 0.00 | 0.00 | 72 | 1006.3 |
| 20260505190204 | 82 | 237 | 3.0 | 9.0 | 0.00 | 0.00 | 0.00 | 72 | 1006.2 |
| 20260505185704 | 82 | 241 | 3.0 | 12.0 | 0.00 | 0.00 | 0.00 | 73 | 1006.3 |
| 20260505184704 | 82 | 184 | 3.0 | 9.0 | 0.00 | 0.00 | 0.00 | 73 | 1006.3 |
| 20260505184204 | 82 | 207 | 4.0 | 9.0 | 0.00 | 0.00 | 0.00 | 74 | 1006.3 |
| 20260505183704 | 81 | 173 | 2.0 | 9.0 | 0.00 | 0.00 | 0.00 | 74 | 1006.3 |
| 20260505183204 | 81 | 200 | 3.0 | 8.0 | 0.00 | 0.00 | 0.00 | 75 | 1006.2 |
| 20260505182203 | 82 | 179 | 5.0 | 13.0 | 0.00 | 0.00 | 0.00 | 74 | 1006.3 |
| 20260505181704 | 81 | 268 | 3.0 | 7.0 | 0.00 | 0.00 | 0.00 | 74 | 1006.2 |
| 20260505181204 | 81 | 135 | 3.0 | 12.0 | 0.00 | 0.00 | 0.00 | 76 | 1006.2 |
| 20260505180204 | 80 | 199 | 5.0 | 13.0 | 0.00 | 0.00 | 0.00 | 75 | 1006.4 |
| 20260505175704 | 80 | 191 | 5.0 | 12.0 | 0.00 | 0.00 | 0.00 | 75 | 1006.5 |
| 20260505175204 | 80 | 187 | 3.0 | 7.0 | 0.00 | 0.00 | 0.00 | 76 | 1006.7 |
| 20260505174704 | 79 | 203 | 1.0 | 5.0 | 0.00 | 0.00 | 0.00 | 78 | 1006.7 |
| 20260505174204 | 79 | 199 | 2.0 | 8.0 | 0.00 | 0.00 | 0.00 | 77 | 1006.7 |
| 20260505173204 | 78 | 146 | 4.0 | 12.0 | 0.00 | 0.00 | 0.00 | 77 | 1006.7 |
| 20260505172704 | 78 | 116 | 2.0 | 7.0 | 0.00 | 0.00 | 0.00 | 78 | 1006.8 |
| 20260505172204 | 78 | 206 | 3.0 | 8.0 | 0.00 | 0.00 | 0.00 | 79 | 1006.8 |
| 20260505171704 | 78 | 156 | 4.0 | 9.0 | 0.00 | 0.00 | 0.00 | 79 | 1006.8 |
| 20260505171204 | 77 | 231 | 3.0 | 12.0 | 0.00 | 0.00 | 0.00 | 80 | 1007.0 |
| 20260505170704 | 77 | 171 | 2.0 | 6.0 | 0.00 | 0.00 | 0.00 | 80 | 1007.0 |
| 20260505170204 | 77 | 193 | 4.0 | 8.0 | 0.00 | 0.00 | 0.00 | 80 | 1007.1 |
| 20260505164704 | 76 | 158 | 3.0 | 17.0 | 0.00 | 0.00 | 0.00 | 80 | 1007.0 |
| 20260505164204 | 76 | 156 | 3.0 | 8.0 | 0.00 | 0.00 | 0.00 | 81 | 1007.2 |
| 20260505163204 | 76 | 344 | 2.0 | 8.0 | 0.00 | 0.00 | 0.00 | 82 | 1007.2 |
| 20260505162704 | 76 | 184 | 5.0 | 8.0 | 0.00 | 0.00 | 0.00 | 82 | 1007.2 |
| 20260505162203 | 75 | 218 | 2.0 | 5.0 | 0.00 | 0.00 | 0.00 | 82 | 1007.2 |
| 20260505161704 | 75 | 192 | 3.0 | 13.0 | 0.00 | 0.00 | 0.00 | 82 | 1007.2 |
| 20260505161204 | 75 | 202 | 2.0 | 7.0 | 0.00 | 0.00 | 0.00 | 82 | 1007.2 |
| 20260505160704 | 75 | 211 | 3.0 | 8.0 | 0.00 | 0.00 | 0.00 | 82 | 1007.2 |
| 20260505160204 | 75 | 207 | 3.0 | 6.0 | 0.00 | 0.00 | 0.00 | 83 | 1007.2 |
| 20260505153204 | 74 | 200 | 3.0 | 3.0 | 0.00 | 0.00 | 0.00 | 84 | 1007.1 |
| 20260505152703 | 74 | 250 | 2.0 | 8.0 | 0.00 | 0.00 | 0.00 | 85 | 1007.3 |
| 20260505151704 | 73 | 221 | 2.0 | 8.0 | 0.00 | 0.00 | 0.00 | 86 | 1007.4 |
| 20260505151204 | 73 | 178 | 2.0 | 3.0 | 0.00 | 0.00 | 0.00 | 86 | 1007.2 |
| 20260505150704 | 73 | 277 | 1.0 | 9.0 | 0.00 | 0.00 | 0.00 | 86 | 1007.2 |
| 20260505150204 | 73 | 145 | 4.0 | 8.0 | 0.00 | 0.00 | 0.00 | 86 | 1007.2 |
| 20260505130204 | 69 | 156 | 2.0 | 7.0 | 0.00 | 0.00 | 0.00 | 88 | 1007.1 |
| 20260505124704 | 69 | 185 | 2.0 | 8.0 | 0.00 | 0.00 | 0.00 | 88 | 1007.1 |
| 20260505123703 | 69 | 133 | 2.0 | 6.0 | 0.00 | 0.00 | 0.00 | 88 | 1006.9 |
| 20260505123204 | 69 | 161 | 2.0 | 12.0 | 0.00 | 0.00 | 0.00 | 88 | 1007.0 |
| 20260505122204 | 69 | 194 | 4.0 | 9.0 | 0.00 | 0.00 | 0.00 | 88 | 1006.9 |